FW1093 Weather Reports


time (UTC)temp
C
wind
direction
speed
KPH
gust
KPH
rain 1hr
cm
rain 24hr
cm
rain mn
cm
humidity
%
barometer
mb
20260507155327 13 35 3.2 11.3 0.00 0.58 0.43 39 1010.3
20260507154315 13 359 1.6 9.7 0.00 0.58 0.43 44 1010.5
20260507153330 12 35 4.8 11.3 0.00 0.58 0.43 43 1010.6
20260507152321 12 25 4.8 11.3 0.00 0.58 0.43 44 1010.9
20260507151337 12 282 3.2 9.7 0.00 0.58 0.43 48 1010.7
20260507150317 12 243 3.2 9.7 0.00 0.58 0.43 47 1010.6
20260507145349 12 348 3.2 9.7 0.00 0.58 0.43 49 1010.6
20260507144317 11 14 1.6 9.7 0.00 0.58 0.43 50 1010.7
20260507143333 11 275 3.2 8.0 0.00 0.58 0.43 52 1010.7
20260507142321 11 288 4.8 12.9 0.00 0.58 0.43 49 1010.8
20260507141338 11 352 1.6 8.0 0.00 0.58 0.43 52 1010.8
20260507140328 10 12 0.0 8.0 0.00 0.58 0.43 63 1010.8
20260507135318 10 284 0.0 6.4 0.00 0.58 0.43 63 1010.8
20260507134329 10 279 1.6 6.4 0.00 0.58 0.43 65 1010.7
20260507133324 9 346 1.6 11.3 0.00 0.58 0.43 63 1010.6
20260507132332 8 291 0.0 4.8 0.00 0.58 0.43 74 1010.8
20260507131320 8 262 0.0 1.6 0.00 0.58 0.43 74 1010.7
20260507130330 8 275 1.6 8.0 0.00 0.58 0.43 73 1010.7
20260507125319 8 236 3.2 19.3 0.00 0.58 0.43 77 1010.8
20260507124328 8 131 3.2 11.3 0.00 0.58 0.43 79 1010.8
20260507123338 8 321 0.0 9.7 0.00 0.58 0.43 84 1010.8
20260507122326 8 302 1.6 6.4 0.00 0.58 0.43 89 1010.8
20260507121317 8 4 0.0 3.2 0.00 0.58 0.43 91 1010.8
20260507120332 8 356 0.0 4.8 0.00 0.58 0.43 93 1010.4
20260507115322 8 306 0.0 1.6 0.00 0.58 0.43 93 1010.5
20260507114312 8 280 0.0 0.0 0.00 0.58 0.43 94 1010.5
20260507113319 8 277 0.0 0.0 0.00 0.58 0.43 95 1010.5
20260507112325 8 277 0.0 0.0 0.00 0.58 0.43 95 1010.4
20260507111334 8 277 0.0 1.6 0.00 0.58 0.43 95 1010.2
20260507110321 8 271 0.0 1.6 0.00 0.58 0.43 95 1010.1
20260507105328 8 271 0.0 1.6 0.00 0.58 0.43 95 1010.0
20260507104317 8 262 0.0 1.6 0.00 0.58 0.43 95 1009.7
20260507103327 8 262 0.0 0.0 0.00 0.58 0.43 95 1009.7
20260507102315 8 262 0.0 0.0 0.00 0.58 0.43 95 1009.8
20260507101327 8 262 0.0 0.0 0.00 0.58 0.43 95 1009.6
20260507100335 8 282 0.0 0.0 0.03 0.58 0.43 95 1009.4
20260507095345 8 282 0.0 0.0 0.03 0.58 0.43 95 1009.2
20260507094315 8 281 0.0 0.0 0.03 0.58 0.43 95 1009.3
20260507093325 8 281 0.0 0.0 0.05 0.58 0.43 95 1009.2
20260507092334 8 281 0.0 0.0 0.05 0.58 0.43 95 1008.9
20260507091322 8 281 0.0 0.0 0.08 0.58 0.43 95 1008.6
20260507090330 8 281 0.0 0.0 0.08 0.56 0.41 95 1008.9
20260507085323 8 281 0.0 1.6 0.08 0.56 0.41 95 1009.5
20260507084332 8 259 0.0 0.0 0.08 0.56 0.41 95 1008.2
20260507083338 8 259 0.0 1.6 0.08 0.53 0.38 94 1008.8
20260507082326 8 268 0.0 3.2 0.13 0.53 0.38 94 1008.6
20260507081314 8 291 0.0 3.2 0.13 0.51 0.36 94 1008.9
20260507080323 8 304 0.0 1.6 0.15 0.48 0.33 94 1009.6
20260507075315 8 304 0.0 1.6 0.18 0.48 0.33 94 1009.0
20260507074323 8 271 0.0 1.6 0.18 0.46 0.30 94 1008.9
20260507073313 8 267 0.0 3.2 0.20 0.43 0.28 94 1009.1
20260507072347 9 359 0.0 1.6 0.23 0.41 0.25 94 1009.4
20260507071336 9 283 0.0 6.4 0.20 0.36 0.20 94 1008.8
20260507070324 9 252 0.0 1.6 0.18 0.33 0.18 93 1008.8
20260507065331 9 360 0.0 3.2 0.15 0.30 0.15 92 1009.0
20260507064320 9 303 0.0 0.0 0.10 0.25 0.10 92 1008.9
20260507063326 10 314 0.0 0.0 0.08 0.23 0.08 91 1008.9
20260507062314 10 313 0.0 4.8 0.03 0.18 0.03 90 1008.6
20260507061330 10 291 0.0 3.2 0.00 0.15 0.00 90 1008.7
20260507060319 10 290 0.0 1.6 0.00 0.15 0.00 88 1008.1
20260507055323 10 272 0.0 1.6 0.00 0.15 0.00 88 1008.2
20260507054330 10 280 0.0 1.6 0.00 0.15 0.00 88 1008.5
20260507052329 11 272 0.0 6.4 0.00 0.15 0.00 88 1008.5
20260507051318 11 342 1.6 6.4 0.00 0.15 0.00 88 1008.6
20260507050327 11 16 0.0 4.8 0.00 0.15 0.00 89 1008.6
20260507045315 11 41 1.6 3.2 0.00 0.15 0.00 89 1008.5
20260507044351 11 289 0.0 1.6 0.00 0.15 0.00 90 1008.8
20260507043319 11 333 0.0 1.6 0.00 0.15 0.00 90 1008.8
20260507042335 11 310 0.0 4.8 0.00 0.15 0.00 90 1008.8
20260507041324 11 307 0.0 1.6 0.00 0.15 0.00 90 1008.9
20260507040312 12 306 0.0 1.6 0.00 0.15 0.00 90 1008.5
20260507034329 12 245 0.0 4.8 0.00 0.15 0.15 90 1008.4
20260507033316 12 276 0.0 3.2 0.00 0.15 0.15 91 1008.6
20260507032325 12 270 0.0 3.2 0.00 0.15 0.15 91 1008.5
20260507031314 12 300 1.6 8.0 0.00 0.15 0.15 91 1008.7
20260507030330 13 334 0.0 6.4 0.00 0.15 0.15 92 1008.7
20260507025337 13 319 1.6 6.4 0.00 0.15 0.15 92 1008.7
20260507024327 15 204 0.0 0.0 0.00 0.15 0.15 96 1008.5
20260507023315 15 162 0.0 0.0 0.00 0.15 0.15 96 1008.4
20260507022329 15 162 0.0 0.0 0.00 0.15 0.15 96 1008.2
20260507021318 15 141 0.0 0.0 0.00 0.15 0.15 96 1008.1
20260507020335 15 144 0.0 0.0 0.00 0.15 0.15 96 1008.1
20260507015326 15 134 0.0 0.0 0.00 0.15 0.15 96 1008.2
20260507014333 15 132 0.0 1.6 0.00 0.15 0.15 95 1008.1
20260507013326 15 195 0.0 1.6 0.00 0.15 0.15 95 1008.3
20260507012316 15 144 0.0 0.0 0.00 0.15 0.15 95 1008.1
20260507011353 15 134 0.0 1.6 0.00 0.15 0.15 95 1008.1
20260507010321 15 124 0.0 0.0 0.00 0.15 0.15 95 1008.0
20260507005311 15 166 0.0 0.0 0.00 0.15 0.15 95 1008.0
20260507004346 15 166 0.0 3.2 0.00 0.15 0.15 95 1007.8
20260507003333 15 139 0.0 0.0 0.00 0.15 0.15 95 1007.9
20260507002329 15 141 0.0 3.2 0.00 0.15 0.15 95 1007.9
20260507001319 15 169 0.0 0.0 0.00 0.15 0.15 95 1007.9
20260507000328 15 107 0.0 0.0 0.00 0.15 0.15 95 1007.7
20260506235317 15 105 0.0 0.0 0.00 0.15 0.15 95 1007.8
20260506234327 15 156 0.0 3.2 0.00 0.15 0.15 95 1007.8
20260506233337 15 127 1.6 3.2 0.00 0.15 0.15 95 1008.0
20260506232345 15 115 0.0 1.6 0.00 0.15 0.15 95 1007.9
20260506231333 15 135 0.0 3.2 0.00 0.15 0.15 95 1007.8
20260506230322 15 284 0.0 1.6 0.00 0.15 0.15 95 1007.7
20260506225312 15 115 0.0 1.6 0.00 0.15 0.15 95 1007.4
20260506224328 15 125 0.0 0.0 0.00 0.15 0.15 95 1007.4
20260506223315 15 122 0.0 1.6 0.00 0.15 0.15 95 1007.3
20260506222324 15 143 0.0 3.2 0.00 0.15 0.15 95 1007.3
20260506221315 15 127 0.0 3.2 0.00 0.15 0.15 95 1007.3
20260506220351 15 142 0.0 0.0 0.00 0.15 0.15 95 1007.3
20260506215319 15 156 0.0 1.6 0.00 0.15 0.15 95 1007.1
20260506214327 15 137 0.0 0.0 0.00 0.15 0.15 95 1007.1
20260506213335 15 143 0.0 0.0 0.00 0.15 0.15 94 1007.1
20260506212345 14 145 0.0 3.2 0.03 0.15 0.15 94 1007.0
20260506211313 14 153 0.0 0.0 0.03 0.15 0.15 94 1006.9
20260506210329 14 153 0.0 0.0 0.03 0.15 0.15 94 1006.9
20260506205317 15 134 0.0 0.0 0.03 0.15 0.15 94 1006.9
20260506204335 15 143 0.0 1.6 0.03 0.15 0.15 94 1007.0
20260506203341 15 160 0.0 0.0 0.00 0.13 0.13 93 1007.2
20260506202330 15 166 0.0 0.0 0.00 0.13 0.13 93 1007.3
20260506201320 15 160 0.0 0.0 0.00 0.13 0.13 93 1007.5
20260506200328 15 124 0.0 0.0 0.00 0.13 0.13 93 1007.6
20260506195318 15 146 0.0 1.6 0.00 0.13 0.13 93 1007.6
20260506194326 15 139 0.0 0.0 0.00 0.13 0.13 93 1007.7
20260506193312 15 139 0.0 0.0 0.00 0.13 0.13 93 1007.8
20260506192348 15 144 0.0 3.2 0.03 0.13 0.13 93 1008.1
20260506191336 15 146 0.0 1.6 0.03 0.13 0.13 93 1008.0
20260506190330 15 101 1.6 4.8 0.05 0.13 0.13 92 1008.1
20260506185315 15 187 1.6 6.4 0.05 0.13 0.13 92 1008.3
20260506184324 14 231 0.0 3.2 0.05 0.13 0.13 92 1008.3
20260506183331 15 134 0.0 0.0 0.08 0.13 0.13 92 1008.4
20260506182340 14 153 0.0 6.4 0.05 0.10 0.10 92 1008.6
20260506181313 14 126 0.0 4.8 0.10 0.10 0.10 92 1008.8
20260506180344 14 142 1.6 4.8 0.08 0.08 0.08 91 1008.8
20260506175318 15 141 0.0 3.2 0.08 0.08 0.08 90 1008.6
20260506174343 15 122 0.0 1.6 0.08 0.08 0.08 90 1008.6
20260506173316 15 285 0.0 1.6 0.05 0.05 0.05 89 1008.5
20260506172331 15 105 0.0 3.2 0.03 0.03 0.03 87 1008.6
20260506171343 16 178 0.0 0.0 0.00 0.00 0.00 85 1009.0
20260506170337 16 125 0.0 1.6 0.00 0.00 0.00 83 1009.5
20260506165327 16 105 0.0 1.6 0.00 0.00 0.00 80 1009.7
20260506164342 17 63 0.0 1.6 0.00 0.00 0.00 79 1009.6
20260506163330 17 103 0.0 3.2 0.00 0.00 0.00 78 1009.5
20260506162337 17 225 0.0 3.2 0.00 0.00 0.00 78 1009.4
20260506161326 17 160 1.6 4.8 0.00 0.00 0.00 76 1009.5
20260506160315 17 231 0.0 11.3 0.00 0.00 0.00 76 1009.7